Total_Precipitation_Accumulation
0.57 0.55 0.54 0.51 0.48 0.49 0.59 0.70 1.07 1.38 1.80 2.15 2.07 2.21 2.48 2.48 2.33 2.19 2.20 2.20 2.14 2.19 2.11 2.05 2.01 1.87 1.75 1.62 1.49 1.41 1.39 1.36 1.43 1.50 1.47 1.41 1.38 1.34 1.27 1.20 1.11 1.10 1.10 1.05
0.53 0.47 0.51 0.55 0.58 0.53 0.57 0.72 1.04 1.43 1.95 2.05 2.05 2.14 2.27 2.40 2.35 2.24 2.25 2.29 2.32 2.43 2.37 2.29 2.24 2.06 1.90 1.76 1.56 1.43 1.40 1.37 1.39 1.44 1.43 1.38 1.36 1.31 1.24 1.17 1.15 1.11 1.07 1.03
0.68 0.48 0.73 1.08 0.91 0.79 0.80 0.91 1.17 1.57 1.80 1.76 1.87 2.09 2.19 2.27 2.40 2.38 2.48 2.62 2.66 2.60 2.54 2.43 2.32 2.30 2.17 1.93 1.73 1.64 1.55 1.44 1.42 1.38 1.33 1.30 1.18 1.14 1.18 1.19 1.15 1.08 1.02 1.02
0.82 0.90 1.49 1.40 0.91 0.86 0.99 1.15 1.24 1.35 1.41 1.59 1.81 1.98 2.06 2.25 2.49 2.55 2.54 2.50 2.57 2.51 2.51 2.42 2.30 2.23 2.15 1.98 1.81 1.63 1.52 1.40 1.32 1.31 1.26 1.24 1.21 1.19 1.20 1.19 1.12 1.13 1.09 1.07
1.04 1.38 1.53 1.43 0.99 1.00 1.22 1.58 1.39 1.42 1.41 1.52 1.62 1.81 2.19 2.26 2.36 2.57 2.44 2.35 2.42 2.50 2.52 2.46 2.33 2.14 2.02 1.93 1.82 1.69 1.51 1.32 1.21 1.21 1.16 1.12 1.15 1.18 1.16 1.14 1.09 1.06 1.04 1.05
1.29 1.65 1.88 1.71 1.00 0.84 1.26 2.25 1.70 1.57 1.57 1.55 1.67 2.18 2.33 2.08 2.02 2.13 2.19 2.29 2.41 2.52 2.56 2.49 2.37 2.06 1.92 1.80 1.65 1.49 1.28 1.15 1.12 1.14 1.08 1.05 1.07 1.08 1.06 1.06 1.06 1.03 1.00 1.03
1.42 1.86 1.97 1.23 0.77 0.89 1.82 2.30 1.78 1.67 1.62 1.65 1.87 2.06 1.87 1.72 1.80 1.97 2.12 2.27 2.37 2.39 2.40 2.32 2.23 1.99 1.89 1.71 1.54 1.29 1.09 1.02 1.06 1.06 1.00 0.96 1.00 1.02 1.03 0.97 1.00 1.02 0.96 0.96
1.61 2.05 2.17 1.06 0.84 1.27 1.63 1.36 1.29 1.31 1.29 1.34 1.44 1.51 1.55 1.60 1.67 1.74 1.86 2.05 2.18 2.23 2.21 2.09 1.97 1.82 1.71 1.57 1.32 1.12 1.01 0.97 1.02 1.06 0.85 0.75 0.87 0.89 0.92 1.00 0.98 0.98 0.99 0.91
1.83 2.16 1.78 1.15 1.07 1.07 1.14 1.15 1.09 1.14 1.10 1.12 1.21 1.27 1.39 1.56 1.66 1.68 1.65 1.80 1.88 1.81 1.72 1.72 1.65 1.54 1.43 1.30 1.12 0.99 0.96 1.00 0.99 0.97 0.88 0.81 0.85 0.86 0.89 0.94 0.92 0.88 0.89 0.85
1.58 1.66 1.38 1.10 1.00 0.97 0.87 0.85 0.89 1.02 1.04 1.01 1.01 1.00 1.11 1.25 1.40 1.47 1.45 1.45 1.50 1.52 1.47 1.44 1.38 1.29 1.18 1.04 1.00 0.98 0.98 0.99 1.00 0.96 0.87 0.82 0.85 0.80 0.81 0.81 0.80 0.76 0.77 0.78
1.68 1.65 1.42 1.22 1.04 0.93 0.87 0.84 0.89 0.94 0.90 0.85 0.81 0.81 0.85 1.00 1.09 1.14 1.18 1.16 1.18 1.28 1.30 1.19 1.11 1.08 1.02 0.92 0.91 0.99 1.01 0.97 0.95 0.85 0.82 0.83 0.77 0.66 0.62 0.59 0.60 0.65 0.69 0.67
1.88 1.59 1.49 1.34 1.02 0.83 0.82 0.81 0.79 0.77 0.73 0.73 0.71 0.71 0.75 0.91 1.01 1.03 1.01 1.02 1.08 1.13 1.09 1.04 0.99 0.96 0.90 0.82 0.82 0.93 0.98 0.93 0.85 0.78 0.74 0.71 0.73 0.64 0.56 0.52 0.51 0.49 0.52 0.51
1.27 1.09 1.05 0.99 0.87 0.82 0.72 0.67 0.70 0.66 0.59 0.59 0.60 0.59 0.69 0.84 0.87 0.90 0.94 0.97 1.06 1.05 0.99 0.90 0.85 0.87 0.86 0.81 0.76 0.80 0.85 0.82 0.77 0.72 0.69 0.65 0.68 0.71 0.68 0.52 0.44 0.42 0.44 0.46
0.92 0.95 1.01 0.86 0.73 0.66 0.57 0.51 0.54 0.53 0.51 0.50 0.50 0.50 0.57 0.64 0.69 0.78 0.87 0.92 0.96 0.92 0.92 0.91 0.81 0.77 0.77 0.73 0.69 0.66 0.70 0.66 0.64 0.67 0.67 0.64 0.59 0.58 0.59 0.60 0.57 0.50 0.44 0.42
0.79 0.79 0.85 0.71 0.55 0.54 0.52 0.46 0.51 0.56 0.55 0.53 0.47 0.43 0.44 0.54 0.63 0.69 0.70 0.75 0.81 0.79 0.78 0.79 0.79 0.71 0.66 0.65 0.64 0.60 0.61 0.62 0.55 0.54 0.57 0.55 0.52 0.52 0.51 0.54 0.55 0.54 0.48 0.41
0.68 0.63 0.61 0.58 0.50 0.47 0.50 0.52 0.55 0.57 0.58 0.57 0.53 0.49 0.47 0.53 0.62 0.66 0.64 0.67 0.71 0.66 0.62 0.66 0.70 0.62 0.55 0.52 0.53 0.55 0.51 0.51 0.48 0.46 0.47 0.49 0.46 0.48 0.48 0.47 0.48 0.48 0.46 0.42
0.72 0.71 0.65 0.60 0.53 0.49 0.48 0.53 0.51 0.49 0.53 0.60 0.56 0.49 0.47 0.53 0.63 0.64 0.64 0.58 0.54 0.51 0.47 0.50 0.57 0.55 0.53 0.49 0.45 0.41 0.41 0.42 0.44 0.40 0.39 0.38 0.37 0.37 0.40 0.43 0.44 0.47 0.44 0.42
0.61 0.61 0.59 0.60 0.54 0.50 0.49 0.47 0.46 0.45 0.47 0.53 0.54 0.53 0.53 0.58 0.62 0.58 0.53 0.45 0.44 0.44 0.41 0.36 0.43 0.49 0.51 0.51 0.45 0.38 0.37 0.38 0.39 0.38 0.36 0.33 0.31 0.33 0.35 0.37 0.37 0.40 0.44 0.47
0.47 0.46 0.47 0.49 0.47 0.49 0.52 0.48 0.43 0.39 0.40 0.45 0.52 0.58 0.62 0.61 0.58 0.53 0.50 0.48 0.49 0.51 0.44 0.38 0.43 0.45 0.45 0.46 0.46 0.42 0.40 0.40 0.40 0.41 0.38 0.35 0.32 0.35 0.36 0.36 0.36 0.37 0.39 0.44
0.42 0.39 0.41 0.45 0.43 0.44 0.45 0.42 0.40 0.39 0.40 0.46 0.47 0.47 0.56 0.55 0.52 0.51 0.52 0.54 0.49 0.45 0.41 0.38 0.38 0.43 0.45 0.45 0.47 0.42 0.41 0.40 0.41 0.42 0.42 0.41 0.39 0.38 0.37 0.37 0.38 0.41 0.43 0.46
0.43 0.42 0.43 0.46 0.44 0.39 0.37 0.38 0.41 0.43 0.45 0.47 0.42 0.40 0.45 0.47 0.43 0.47 0.52 0.52 0.46 0.42 0.46 0.46 0.39 0.37 0.40 0.43 0.49 0.47 0.46 0.44 0.42 0.40 0.40 0.41 0.39 0.40 0.38 0.37 0.37 0.39 0.41 0.43
0.54 0.53 0.48 0.50 0.50 0.43 0.39 0.40 0.40 0.40 0.41 0.42 0.38 0.40 0.44 0.45 0.44 0.48 0.50 0.46 0.39 0.38 0.39 0.42 0.40 0.38 0.38 0.41 0.40 0.41 0.43 0.44 0.43 0.39 0.37 0.39 0.40 0.40 0.40 0.39 0.39 0.38 0.37 0.38
0.64 0.61 0.54 0.58 0.55 0.51 0.48 0.40 0.35 0.36 0.40 0.40 0.38 0.39 0.42 0.44 0.44 0.48 0.49 0.42 0.38 0.39 0.37 0.37 0.40 0.38 0.34 0.31 0.32 0.34 0.35 0.39 0.42 0.40 0.36 0.36 0.36 0.36 0.34 0.34 0.35 0.35 0.34 0.36
0.72 0.72 0.62 0.59 0.53 0.58 0.55 0.43 0.38 0.39 0.43 0.41 0.39 0.38 0.38 0.39 0.40 0.41 0.41 0.44 0.43 0.41 0.36 0.38 0.39 0.36 0.33 0.27 0.29 0.33 0.34 0.35 0.35 0.35 0.33 0.32 0.33 0.33 0.32 0.32 0.32 0.31 0.31 0.33
0.76 0.77 0.69 0.65 0.67 0.67 0.63 0.55 0.49 0.46 0.47 0.44 0.39 0.37 0.37 0.39 0.41 0.41 0.39 0.38 0.40 0.39 0.34 0.36 0.38 0.36 0.31 0.29 0.32 0.32 0.30 0.33 0.34 0.31 0.29 0.29 0.30 0.30 0.31 0.31 0.29 0.28 0.28 0.29
0.81 0.82 0.76 0.71 0.70 0.68 0.65 0.65 0.67 0.61 0.56 0.50 0.42 0.39 0.36 0.36 0.37 0.39 0.36 0.34 0.34 0.34 0.31 0.34 0.34 0.35 0.31 0.29 0.33 0.34 0.31 0.32 0.33 0.32 0.29 0.29 0.32 0.32 0.30 0.29 0.29 0.29 0.29 0.29
0.79 0.79 0.75 0.66 0.61 0.61 0.69 0.72 0.70 0.68 0.64 0.57 0.49 0.41 0.37 0.37 0.34 0.36 0.37 0.36 0.35 0.33 0.32 0.35 0.36 0.36 0.34 0.33 0.35 0.37 0.32 0.30 0.32 0.31 0.29 0.30 0.32 0.33 0.32 0.32 0.30 0.28 0.27 0.28